TimeMDT,TemperatureF,Dew PointF,Humidity,Sea Level PressureIn,VisibilityMPH,Wind Direction,Wind SpeedMPH,Gust SpeedMPH,PrecipitationIn,Events,Conditions,WindDirDegrees,DateUTC
12:15 AM,37.4,24.8,60,30.05,10.0,North,6.9,-,N/A,,Clear,10,2012-10-08 06:15:00
12:35 AM,35.6,24.8,65,30.05,10.0,North,5.8,-,N/A,,Clear,10,2012-10-08 06:35:00
12:55 AM,35.6,23.0,60,30.05,10.0,North,6.9,-,N/A,,Clear,10,2012-10-08 06:55:00
1:15 AM,35.6,23.0,60,30.05,10.0,North,8.1,-,N/A,,Clear,10,2012-10-08 07:15:00
1:35 AM,35.6,21.2,56,30.04,10.0,North,6.9,-,N/A,,Clear,360,2012-10-08 07:35:00
1:55 AM,33.8,23.0,65,30.05,10.0,North,8.1,-,N/A,,Clear,360,2012-10-08 07:55:00
2:15 AM,33.8,23.0,65,30.04,10.0,NNE,8.1,-,N/A,,Clear,20,2012-10-08 08:15:00
2:35 AM,33.8,23.0,65,30.03,10.0,North,9.2,-,N/A,,Clear,10,2012-10-08 08:35:00
2:55 AM,33.8,23.0,65,30.03,10.0,North,4.6,-,N/A,,Clear,10,2012-10-08 08:55:00
3:15 AM,30.2,24.8,80,30.03,10.0,Calm,Calm,-,N/A,,Clear,0,2012-10-08 09:15:00
3:35 AM,33.8,24.8,70,30.02,10.0,Calm,Calm,-,N/A,,Clear,0,2012-10-08 09:35:00
3:55 AM,33.8,24.8,70,30.02,10.0,WNW,4.6,-,N/A,,Clear,290,2012-10-08 09:55:00
4:15 AM,33.8,24.8,70,30.02,10.0,West,4.6,-,N/A,,Clear,260,2012-10-08 10:15:00
4:35 AM,33.8,24.8,70,30.01,10.0,Calm,Calm,-,N/A,,Clear,0,2012-10-08 10:35:00
4:55 AM,33.8,24.8,70,30.01,10.0,Calm,Calm,-,N/A,,Clear,0,2012-10-08 10:55:00
5:15 AM,30.2,23.0,75,30.00,10.0,Calm,Calm,-,N/A,,Clear,0,2012-10-08 11:15:00
5:35 AM,30.2,24.8,80,30.00,10.0,SSE,3.5,-,N/A,,Clear,150,2012-10-08 11:35:00
5:55 AM,30.2,23.0,75,30.00,10.0,South,5.8,-,N/A,,Clear,170,2012-10-08 11:55:00
6:15 AM,28.4,21.2,74,30.00,10.0,South,4.6,-,N/A,,Clear,190,2012-10-08 12:15:00
6:35 AM,30.2,21.2,69,30.00,10.0,Calm,Calm,-,N/A,,Clear,0,2012-10-08 12:35:00
6:55 AM,28.4,21.2,74,30.00,10.0,Calm,Calm,-,N/A,,Clear,0,2012-10-08 12:55:00
7:15 AM,28.4,21.2,74,30.00,10.0,SW,3.5,-,N/A,,Clear,220,2012-10-08 13:15:00
7:35 AM,28.4,21.2,74,30.00,10.0,Calm,Calm,-,N/A,,Clear,0,2012-10-08 13:35:00
7:55 AM,30.2,24.8,80,30.00,10.0,South,3.5,-,N/A,,Clear,180,2012-10-08 13:55:00
8:15 AM,35.6,26.6,70,30.00,10.0,NNE,3.5,-,N/A,,Clear,30,2012-10-08 14:15:00
8:35 AM,39.2,26.6,61,30.00,10.0,Calm,Calm,-,N/A,,Clear,0,2012-10-08 14:35:00
8:55 AM,41.0,26.6,57,30.00,10.0,North,3.5,-,N/A,,Clear,360,2012-10-08 14:55:00
9:15 AM,42.8,28.4,57,30.00,10.0,Calm,Calm,-,N/A,,Clear,0,2012-10-08 15:15:00
9:35 AM,46.4,26.6,46,30.00,10.0,Calm,Calm,-,N/A,,Clear,0,2012-10-08 15:35:00
9:55 AM,46.4,30.2,53,29.99,10.0,NE,8.1,-,N/A,,Clear,40,2012-10-08 15:55:00
10:15 AM,46.4,26.6,46,29.99,10.0,North,5.8,-,N/A,,Clear,10,2012-10-08 16:15:00
10:35 AM,50.0,26.6,40,29.98,10.0,NNE,4.6,-,N/A,,Clear,20,2012-10-08 16:35:00
10:55 AM,51.8,24.8,35,29.98,10.0,NE,3.5,-,N/A,,Clear,40,2012-10-08 16:55:00
11:15 AM,55.4,24.8,31,29.97,10.0,Calm,Calm,-,N/A,,Clear,0,2012-10-08 17:15:00
11:35 AM,57.2,24.8,29,29.97,10.0,ESE,3.5,-,N/A,,Clear,110,2012-10-08 17:35:00
11:55 AM,60.8,24.8,25,29.96,10.0,Calm,Calm,-,N/A,,Clear,0,2012-10-08 17:55:00
12:15 PM,62.6,24.8,24,29.95,10.0,East,5.8,-,N/A,,Clear,100,2012-10-08 18:15:00
12:35 PM,64.4,26.6,24,29.94,10.0,ENE,5.8,-,N/A,,Clear,70,2012-10-08 18:35:00
12:55 PM,66.2,26.6,23,29.93,10.0,ENE,9.2,-,N/A,,Clear,70,2012-10-08 18:55:00
1:15 PM,66.2,26.6,23,29.92,10.0,ENE,8.1,-,N/A,,Clear,70,2012-10-08 19:15:00
1:35 PM,68.0,24.8,20,29.91,10.0,East,8.1,-,N/A,,Clear,90,2012-10-08 19:35:00
1:55 PM,69.8,21.2,16,29.90,10.0,East,8.1,-,N/A,,Clear,80,2012-10-08 19:55:00
2:15 PM,69.8,21.2,16,29.89,10.0,East,4.6,-,N/A,,Clear,90,2012-10-08 20:15:00
2:35 PM,69.8,19.4,15,29.88,10.0,ENE,9.2,-,N/A,,Clear,70,2012-10-08 20:35:00
2:55 PM,71.6,19.4,14,29.88,10.0,East,9.2,-,N/A,,Clear,80,2012-10-08 20:55:00
3:15 PM,71.6,19.4,14,29.87,10.0,ESE,11.5,-,N/A,,Clear,120,2012-10-08 21:15:00
3:35 PM,71.6,17.6,13,29.86,10.0,East,8.1,-,N/A,,Clear,80,2012-10-08 21:35:00
3:55 PM,71.6,17.6,13,29.86,10.0,SSE,8.1,-,N/A,,Clear,160,2012-10-08 21:55:00
4:15 PM,69.8,15.8,13,29.86,10.0,SE,6.9,-,N/A,,Clear,130,2012-10-08 22:15:00
4:35 PM,68.0,15.8,13,29.85,10.0,SE,4.6,-,N/A,,Clear,130,2012-10-08 22:35:00
4:55 PM,69.8,17.6,14,29.85,10.0,South,3.5,-,N/A,,Clear,180,2012-10-08 22:55:00
5:15 PM,69.8,15.8,13,29.85,10.0,SE,5.8,-,N/A,,Clear,130,2012-10-08 23:15:00
5:35 PM,69.8,17.6,14,29.85,10.0,ESE,5.8,-,N/A,,Clear,120,2012-10-08 23:35:00
5:55 PM,68.0,17.6,15,29.85,10.0,ESE,4.6,-,N/A,,Clear,110,2012-10-08 23:55:00
6:15 PM,66.2,17.6,15,29.85,10.0,Calm,Calm,-,N/A,,Clear,0,2012-10-09 00:15:00
6:35 PM,62.6,17.6,18,29.86,10.0,East,3.5,-,N/A,,Clear,100,2012-10-09 00:35:00
7:35 PM,60.8,17.6,19,29.87,10.0,Calm,Calm,-,N/A,,Clear,0,2012-10-09 01:35:00
7:55 PM,55.4,19.4,25,29.88,10.0,West,3.5,-,N/A,,Clear,270,2012-10-09 01:55:00
8:15 PM,53.6,23.0,30,29.88,10.0,Calm,Calm,-,N/A,,Clear,0,2012-10-09 02:15:00
8:35 PM,51.8,26.6,38,29.88,10.0,South,3.5,-,N/A,,Clear,170,2012-10-09 02:35:00
8:55 PM,51.8,28.4,41,29.89,10.0,South,6.9,-,N/A,,Clear,190,2012-10-09 02:55:00
9:15 PM,48.2,26.6,43,29.89,10.0,South,4.6,-,N/A,,Clear,180,2012-10-09 03:15:00
9:55 PM,50.0,28.4,43,29.89,10.0,Calm,Calm,-,N/A,,Clear,0,2012-10-09 03:55:00
10:15 PM,48.2,24.8,40,29.89,10.0,Calm,Calm,-,N/A,,Clear,0,2012-10-09 04:15:00
10:35 PM,46.4,21.2,37,29.88,10.0,East,9.2,-,N/A,,Clear,90,2012-10-09 04:35:00
10:55 PM,48.2,21.2,34,29.88,10.0,ENE,6.9,-,N/A,,Clear,70,2012-10-09 04:55:00
11:15 PM,48.2,19.4,32,29.88,10.0,ESE,5.8,-,N/A,,Clear,110,2012-10-09 05:15:00
11:35 PM,46.4,19.4,34,29.87,10.0,South,3.5,-,N/A,,Clear,190,2012-10-09 05:35:00
11:55 PM,44.6,21.2,39,29.87,10.0,Calm,Calm,-,N/A,,Clear,0,2012-10-09 05:55:00